[[{"header":{"parameterUnit":"m.s-1","parameterCategory":1,"la1":30.2991,"la2":30.254,"lo1":-89.0895,"lo2":-89.0444,"dy":0.0017,"dx":0.0017,"nx":28,"ny":28,"refTime":"2024-02-04T09:00:00:Z","depth":0,"parameterNumber":2,"parameterNumberName":"U-component_of_WINDS"},"data":[0,0,0,0,0,0,0,0,0,0,0,0,0,0,0,0,0,0,0,0,0,0,0,0,0,0,0,0,0,0,0,0,0,0,0,0,0,0,0,0,0,0,0,0,0,0,0,0,0,0,0,0,0,0,0,0,0,0,0.4978,0.4977,0,0.4956,0.4956,0.4955,0.495,0.495,0.495,0.4951,0.4926,0.4925,0.4925,0,0,0,0,0,0,0,0,0,0,0,0,0,0.5013,0.5012,0.4978,0.4977,0.4977,0.4956,0.4956,0.4955,0.495,0.495,0.4951,0.4951,0.4926,0.4926,0.4925,0,0,0,0,0,0,0,0,0,0,0,0,0,0.4995,0.5012,0.4978,0.4972,0.4971,0.4956,0.4956,0.4955,0.495,0.495,0.4951,0.4951,0.4927,0.4926,0.4924,0.4913,0,0,0.4921,0.492,0,0,0,0,0,0,0,0,0.4996,0.4994,0.4973,0.4972,0.4972,0.4956,0.4959,0.4941,0.495,0.4958,0.4951,0.4951,0.4936,0.4934,0.4929,0.4911,0.491,0.4921,0.492,0.4919,0.4919,0,0,0,0,0,0,0,0.4997,0.4995,0.4969,0.4973,0.4972,0.497,0.4968,0.4956,0.4946,0.4957,0.4957,0.4955,0.4935,0.493,0.4929,0.491,0.4921,0.492,0.4919,0.4918,0.4882,0.4881,0,0,0,0,0,0,0.5,0.4996,0.497,0.4968,0.4985,0.4969,0.4967,0.4961,0.4946,0.4944,0.4954,0.4954,0.4932,0.493,0.4928,0.4913,0.4919,0.4918,0.4918,0.4882,0.4882,0.4881,0,0,0,0,0,0,0.5001,0.4998,0.4971,0.4982,0.4978,0.4968,0.4962,0.496,0.4955,0.4944,0.4942,0.4951,0.4932,0.4929,0.4917,0.4912,0.4918,0.4917,0.4882,0.4882,0.4881,0.4883,0,0,0,0,0,0,0.5002,0.4998,0.4994,0.4982,0.4978,0.496,0.4962,0.496,0.4953,0.4953,0.494,0.4938,0.4932,0.4918,0.4915,0.4911,0.4916,0.4883,0.4882,0.4882,0.4884,0.4883,0.4883,0,0,0,0,0,0.5003,0.4994,0.4993,0.499,0.4972,0.496,0.4958,0.4952,0.4953,0.4948,0.4941,0.4939,0.4913,0.4917,0.4914,0.4908,0.4883,0.4882,0.4882,0.4884,0.4883,0.4883,0,0,0,0,0,0,0.5005,0.4993,0.4991,0.4979,0.4971,0.4959,0.4953,0.4951,0.4941,0.4941,0.4934,0.4931,0.4919,0.4912,0.4917,0.4896,0.4898,0.4897,0.4901,0.49,0.49,0.4901,0.4915,0,0,0,0,0,0.5004,0.4996,0.4985,0.4975,0.4971,0.4963,0.4957,0.4954,0.4944,0.4941,0.4932,0.4923,0.4913,0.4906,0.4896,0.4883,0.488,0.4878,0.4877,0.4877,0.4875,0.4868,0.4867,0.4879,0.4879,0.4879,0,0,0.5002,0.4994,0.4989,0.4976,0.4969,0.496,0.496,0.495,0.4944,0.4939,0.4926,0.492,0.4909,0.4896,0.489,0.489,0.4872,0.4876,0.4876,0.4875,0.4867,0.4866,0.4865,0.4879,0.4879,0.4879,0,0,0.4994,0.4987,0.4978,0.4972,0.4961,0.4956,0.4954,0.4943,0.4939,0.4926,0.4923,0.4914,0.4897,0.4889,0.4883,0.4873,0.487,0.487,0.4867,0.4859,0.4859,0.4858,0.4854,0.4852,0.4868,0.4868,0.4868,0,0.4992,0.4979,0.4974,0.4965,0.4959,0.4955,0.4946,0.4939,0.4926,0.4922,0.4923,0.4901,0.4893,0.4879,0.4876,0.4871,0.4869,0.4871,0.4859,0.4858,0.4857,0.4853,0.4852,0.4869,0.4869,0.4868,0.4868,0,0.4977,0.4969,0.4962,0.4951,0.4944,0.4935,0.4928,0.4922,0.4919,0.4913,0.4901,0.4891,0.488,0.4876,0.4872,0.4861,0.4861,0.4861,0.4862,0.4856,0.4853,0.4851,0.4869,0.4869,0.4869,0.4869,0,0,0.4969,0.4955,0.4953,0.4948,0.4937,0.4929,0.492,0.4909,0.4904,0.4895,0.4887,0.4873,0.4873,0.4866,0.4861,0.4855,0.4847,0.4855,0.4855,0.4854,0.4834,0.4834,0.4833,0.4846,0.4846,0.4845,0.4835,0,0.4959,0.4943,0.4938,0.4924,0.4916,0.4913,0.4904,0.4896,0.4891,0.4883,0.4877,0.4867,0.4867,0.4863,0.4857,0.485,0.4843,0.485,0.4837,0.4837,0.484,0.4831,0.4831,0.4821,0.4833,0.4833,0.4833,0,0.4945,0.4937,0.4923,0.4913,0.4909,0.4902,0.4892,0.4884,0.4875,0.4872,0.4864,0.4861,0.485,0.4853,0.4838,0.4844,0.4838,0.4834,0.4833,0.4831,0.4834,0.4828,0.4818,0.4816,0.4831,0.4831,0.4831,0,0.494,0.4926,0.4915,0.4911,0.4899,0.4894,0.4889,0.4881,0.4875,0.4866,0.4862,0.4851,0.4846,0.4838,0.4831,0.4834,0.4817,0.4819,0.4814,0.4814,0.481,0.481,0.4798,0.4807,0.4807,0.4807,0.4807,0,0.493,0.4921,0.4913,0.4907,0.4897,0.4891,0.4881,0.4876,0.4868,0.486,0.4857,0.4849,0.4841,0.4833,0.4828,0.4817,0.4814,0.4811,0.4809,0.4811,0.4811,0.4807,0.4807,0.4807,0.4807,0.4807,0.4807,0,0.4922,0.4917,0.4905,0.4896,0.4893,0.4886,0.4878,0.4871,0.4866,0.4856,0.4853,0.4845,0.4835,0.4828,0.4814,0.4811,0.4799,0.4798,0.4802,0.4801,0.4796,0.4797,0.4781,0.4778,0.4789,0.4789,0.4789,0,0.4916,0.4909,0.4899,0.4894,0.4889,0.4881,0.4875,0.4869,0.4863,0.4853,0.4847,0.4837,0.4828,0.4812,0.4804,0.4794,0.4793,0.4788,0.4791,0.4793,0.4792,0.4793,0.4792,0.4787,0.4787,0.4787,0.4787,0,0.4904,0.4902,0.4894,0.4886,0.4879,0.4871,0.4864,0.486,0.4853,0.4846,0.4836,0.483,0.4816,0.4806,0.4795,0.4789,0.4787,0.4786,0.4784,0.4785,0.4788,0.4786,0.48,0.4786,0.4786,0.4786,0.4786,0.4786,0.4897,0.4891,0.4883,0.4875,0.4869,0.4862,0.4855,0.485,0.4842,0.4831,0.4828,0.4817,0.4809,0.4794,0.4788,0.4779,0.478,0.4777,0.4776,0.4776,0.4776,0.479,0.4777,0.4777,0.4777,0.4777,0.4777,0,0.4886,0.4881,0.4873,0.4863,0.4856,0.4855,0.4847,0.4841,0.4832,0.4824,0.4816,0.4805,0.4795,0.4787,0.4777,0.4771,0.477,0.4769,0.4769,0.4768,0.4776,0.4779,0.477,0.477,0.477,0.477,0.477,0.477,0.4879,0.4869,0.4866,0.4852,0.4847,0.4837,0.4833,0.4826,0.482,0.4808,0.48,0.4795,0.4787,0.4777,0.4768,0.4765,0.4762,0.4761,0.4758,0.4766,0.4767,0.4768,0.477,0.476,0.476,0.4751,0.475,0.475]},{"header":{"parameterUnit":"m.s-1","parameterCategory":1,"la1":30.2991,"la2":30.254,"lo1":-89.0895,"lo2":-89.0444,"dy":0.0017,"dx":0.0017,"nx":28,"ny":28,"refTime":"2024-02-04T09:00:00:Z","depth":0,"parameterNumber":3,"parameterNumberName":"V-component_of_WINDS"},"data":[0,0,0,0,0,0,0,0,0,0,0,0,0,0,0,0,0,0,0,0,0,0,0,0,0,0,0,0,0,0,0,0,0,0,0,0,0,0,0,0,0,0,0,0,0,0,0,0,0,0,0,0,0,0,0,0,0,0,-5.9693,-5.9694,0,-5.9791,-5.9792,-5.9794,-5.9729,-5.9726,-5.9723,-5.972,-5.982,-5.9825,-5.983,0,0,0,0,0,0,0,0,0,0,0,0,0,-5.9451,-5.9456,-5.9693,-5.9694,-5.9696,-5.9791,-5.9792,-5.9794,-5.973,-5.9726,-5.9722,-5.9719,-5.9818,-5.9824,-5.9831,0,0,0,0,0,0,0,0,0,0,0,0,0,-5.9553,-5.9457,-5.9693,-5.9675,-5.9674,-5.9791,-5.9793,-5.9794,-5.973,-5.9726,-5.9722,-5.9717,-5.9816,-5.9824,-5.9832,-5.9971,0,0,-5.9856,-5.986,0,0,0,0,0,0,0,0,-5.9547,-5.9562,-5.9676,-5.9677,-5.9676,-5.9743,-5.9743,-5.9853,-5.9732,-5.9709,-5.972,-5.9715,-5.9798,-5.9807,-5.9835,-5.9975,-5.9979,-5.9857,-5.9862,-5.9866,-5.9868,0,0,0,0,0,0,0,-5.954,-5.9558,-5.9732,-5.9678,-5.9678,-5.9662,-5.9672,-5.9764,-5.9777,-5.9711,-5.9706,-5.9719,-5.9797,-5.9828,-5.9837,-5.9981,-5.9857,-5.9864,-5.9869,-5.9872,-6.0243,-6.0248,0,0,0,0,0,0,-5.9535,-5.9552,-5.9729,-5.9735,-5.96,-5.967,-5.9681,-5.9726,-5.9776,-5.9779,-5.9723,-5.9716,-5.9816,-5.9828,-5.984,-6.0009,-5.9865,-5.9873,-5.9878,-6.0238,-6.0244,-6.025,0,0,0,0,0,0,-5.953,-5.9551,-5.9725,-5.9642,-5.9663,-5.9679,-5.973,-5.9731,-5.9761,-5.9785,-5.9787,-5.9752,-5.9813,-5.9829,-5.994,-6.0011,-5.9877,-5.9884,-6.0232,-6.024,-6.0247,-6.0345,0,0,0,0,0,0,-5.9523,-5.955,-5.9602,-5.9644,-5.9668,-5.9822,-5.9735,-5.9736,-5.9776,-5.9767,-5.9813,-5.9816,-5.9811,-5.9928,-5.9948,-6.002,-5.989,-6.0226,-6.0236,-6.0244,-6.0335,-6.0355,-6.0371,0,0,0,0,0,-5.9515,-5.9625,-5.9605,-5.9627,-5.9734,-5.9827,-5.984,-5.9832,-5.9781,-5.9835,-5.9851,-5.9814,-6.0,-5.994,-5.9961,-6.0037,-6.0221,-6.0233,-6.0244,-6.0327,-6.0351,-6.0371,0,0,0,0,0,0,-5.959,-5.963,-5.9609,-5.9736,-5.9779,-5.9816,-5.9883,-5.9857,-5.9915,-5.9905,-5.9892,-5.9903,-6.0019,-6.0039,-5.9971,-6.0176,-6.0103,-6.0119,-6.0159,-6.0181,-6.0199,-6.0192,-5.9897,0,0,0,0,0,-5.9622,-5.9694,-5.9725,-5.9834,-5.9857,-5.9866,-5.9906,-5.9897,-5.994,-5.9958,-5.9981,-6.0025,-6.0093,-6.0138,-6.0202,-6.0338,-6.0348,-6.0401,-6.0419,-6.0433,-6.0448,-6.0524,-6.0549,-6.0286,-6.0286,-6.0286,0,0,-5.9688,-5.9718,-5.9764,-5.985,-5.9882,-5.9958,-5.9882,-5.9964,-6.002,-5.997,-6.0077,-6.0096,-6.0143,-6.0268,-6.0324,-6.0288,-6.0523,-6.0448,-6.0459,-6.0466,-6.0538,-6.0563,-6.0585,-6.0294,-6.0293,-6.0291,0,0,-5.9847,-5.9876,-5.9972,-6.0006,-6.0056,-6.0062,-6.0085,-6.0127,-6.0138,-6.0245,-6.021,-6.0277,-6.0394,-6.043,-6.0464,-6.064,-6.061,-6.0661,-6.0756,-6.083,-6.0851,-6.0869,-6.0934,-6.0957,-6.0675,-6.0675,-6.0675,0,-5.9922,-6.0034,-6.0024,-6.011,-6.015,-6.0109,-6.0207,-6.024,-6.0308,-6.0337,-6.0296,-6.0444,-6.0473,-6.0607,-6.0651,-6.0678,-6.0706,-6.0656,-6.0848,-6.0867,-6.0884,-6.0946,-6.097,-6.0681,-6.0681,-6.068,-6.0679,0,-6.0126,-6.0204,-6.0276,-6.0344,-6.0392,-6.0483,-6.0488,-6.0537,-6.0524,-6.0535,-6.0646,-6.0679,-6.0751,-6.0782,-6.0769,-6.0915,-6.0892,-6.085,-6.0776,-6.0915,-6.0973,-6.0996,-6.069,-6.0688,-6.0686,-6.0685,0,0,-6.0334,-6.0398,-6.0424,-6.0456,-6.0509,-6.057,-6.0661,-6.0731,-6.0775,-6.0824,-6.09,-6.1002,-6.0965,-6.1003,-6.0994,-6.1059,-6.12,-6.101,-6.1011,-6.1046,-6.1366,-6.1398,-6.1426,-6.118,-6.1184,-6.1188,-6.1362,0,-6.0497,-6.0656,-6.0651,-6.0798,-6.0872,-6.0836,-6.0915,-6.0957,-6.097,-6.1035,-6.1048,-6.1122,-6.1066,-6.1089,-6.1152,-6.1169,-6.1264,-6.1156,-6.1252,-6.1255,-6.1243,-6.1455,-6.1489,-6.1653,-6.1385,-6.1389,-6.1391,0,-6.0709,-6.0767,-6.0923,-6.0968,-6.0999,-6.107,-6.1136,-6.1198,-6.1246,-6.1251,-6.1296,-6.1277,-6.137,-6.1293,-6.1422,-6.1349,-6.1388,-6.1402,-6.1408,-6.1418,-6.1333,-6.1473,-6.1704,-6.173,-6.1426,-6.1424,-6.1421,0,-6.0848,-6.0965,-6.1074,-6.1102,-6.1157,-6.1209,-6.1234,-6.1277,-6.1321,-6.1378,-6.1407,-6.1474,-6.1511,-6.1564,-6.1565,-6.1509,-6.1696,-6.1619,-6.1704,-6.1704,-6.1746,-6.1743,-6.1989,-6.1768,-6.1768,-6.1767,-6.1767,0,-6.1032,-6.113,-6.1138,-6.1205,-6.1314,-6.1307,-6.1415,-6.1435,-6.1474,-6.1545,-6.1517,-6.1584,-6.158,-6.1649,-6.165,-6.1758,-6.1774,-6.1782,-6.1781,-6.1785,-6.1785,-6.1811,-6.1801,-6.1774,-6.1772,-6.1771,-6.177,0,-6.1206,-6.1216,-6.1333,-6.1376,-6.1389,-6.1468,-6.1505,-6.1569,-6.158,-6.1671,-6.1692,-6.171,-6.1789,-6.1795,-6.1886,-6.1887,-6.2019,-6.2004,-6.2003,-6.2001,-6.2087,-6.208,-6.2359,-6.2397,-6.215,-6.2152,-6.2154,0,-6.1324,-6.1398,-6.1451,-6.1497,-6.1526,-6.16,-6.1645,-6.1642,-6.1691,-6.1752,-6.181,-6.1887,-6.1948,-6.2077,-6.2098,-6.2169,-6.2157,-6.2251,-6.2168,-6.2171,-6.2162,-6.2158,-6.2166,-6.2267,-6.227,-6.2272,-6.2274,0,-6.1533,-6.1534,-6.1601,-6.1671,-6.1726,-6.1781,-6.1831,-6.1871,-6.1874,-6.193,-6.2012,-6.206,-6.2155,-6.2232,-6.2302,-6.2328,-6.2303,-6.23,-6.2324,-6.233,-6.2327,-6.2332,-6.2049,-6.2294,-6.2292,-6.229,-6.2289,-6.2288,-6.1684,-6.1749,-6.1797,-6.1873,-6.1912,-6.196,-6.2024,-6.2044,-6.2113,-6.219,-6.2184,-6.2276,-6.2323,-6.2414,-6.2446,-6.2517,-6.2486,-6.252,-6.2529,-6.2538,-6.2548,-6.2314,-6.253,-6.2529,-6.2529,-6.2528,-6.2528,0,-6.1893,-6.1922,-6.1993,-6.2066,-6.2126,-6.2098,-6.2153,-6.2206,-6.2287,-6.2333,-6.2396,-6.2491,-6.2567,-6.2595,-6.2669,-6.2721,-6.2712,-6.2741,-6.2738,-6.2745,-6.257,-6.2544,-6.2748,-6.2748,-6.2748,-6.2748,-6.2747,-6.2747,-6.2009,-6.2119,-6.2127,-6.2257,-6.2286,-6.2376,-6.241,-6.2456,-6.2494,-6.2602,-6.2665,-6.2683,-6.2723,-6.2801,-6.2869,-6.2876,-6.2905,-6.294,-6.2942,-6.2779,-6.2757,-6.2736,-6.271,-6.2946,-6.2946,-6.311,-6.3112,-6.3113]}]]